Location: Newark
(45.0850°N, 11.6006°E)
Time: 16:25:28
(UTC+00:00)

ISS - Visible Passes

Search period start: 17 October 2019 00:00
Search period end: 27 October 2019 00:00
Orbit: 411 x 421 km, 51.6° (Epoch: 17 October)

Date Brightness Start Highest point End Pass type
(mag) Time Alt. Az. Time Alt. Az. Time Alt. Az.
22 Oct -0.1 04:51:59 10° SE 04:52:10 10° SE 04:52:21 10° SE visible
24 Oct -1.5 04:48:32 10° SSW 04:51:22 25° SE 04:54:12 10° E visible
25 Oct -0.9 04:00:52 10° S 04:02:58 16° SE 04:05:04 10° E visible
26 Oct -3.3 04:47:25 10° SW 04:50:44 62° SE 04:54:04 10° ENE visible
